[[{"header":{"parameterUnit":"m.s-1","parameterCategory":1,"la1":30.2991,"la2":30.254,"lo1":-89.0895,"lo2":-89.0444,"dy":0.0017,"dx":0.0017,"nx":28,"ny":28,"refTime":"2025-04-01T09:00:00:Z","depth":0,"parameterNumber":2,"parameterNumberName":"U-component_of_WINDS"},"data":[0,0,0,0,0,0,0,0,0,0,0,0,0,0,0,0,0,0,0,0,0,0,0,0,0,0,0,0,0,0,0,0,0,0,0,0,0,0,0,0,0,0,0,0,0,0,0,0,0,0,0,0,0,0,0,0,0,0,-4.0584,-4.0585,0,-4.0704,-4.0705,-4.0707,-4.0722,-4.072,-4.0719,-4.0718,-4.084,-4.0844,-4.0849,0,0,0,0,0,0,0,0,0,0,0,0,0,-4.0367,-4.0371,-4.0584,-4.0585,-4.0587,-4.0704,-4.0705,-4.0707,-4.0722,-4.072,-4.0719,-4.0718,-4.0839,-4.0844,-4.0849,0,0,0,0,0,0,0,0,0,0,0,0,0,-4.0471,-4.0372,-4.0584,-4.0608,-4.0612,-4.0703,-4.0705,-4.0707,-4.0722,-4.072,-4.0719,-4.0717,-4.0837,-4.0843,-4.085,-4.0925,0,0,-4.0869,-4.0872,0,0,0,0,0,0,0,0,-4.0465,-4.0479,-4.0603,-4.0607,-4.0611,-4.0696,-4.0674,-4.078,-4.0722,-4.068,-4.0718,-4.0716,-4.0793,-4.0803,-4.083,-4.093,-4.0936,-4.087,-4.0874,-4.0877,-4.0879,0,0,0,0,0,0,0,-4.0458,-4.0474,-4.0631,-4.0605,-4.061,-4.0613,-4.0626,-4.0694,-4.0745,-4.0684,-4.0685,-4.0699,-4.0795,-4.0823,-4.0833,-4.0937,-4.087,-4.0876,-4.088,-4.0882,-4.1105,-4.1107,0,0,0,0,0,0,-4.0446,-4.0468,-4.0628,-4.0635,-4.0532,-4.0619,-4.0633,-4.067,-4.0744,-4.0754,-4.07,-4.0699,-4.0813,-4.0825,-4.0837,-4.0928,-4.0877,-4.0883,-4.0887,-4.1103,-4.1105,-4.1107,0,0,0,0,0,0,-4.0442,-4.046,-4.0623,-4.0552,-4.0573,-4.0624,-4.0666,-4.0674,-4.0702,-4.0757,-4.0766,-4.072,-4.0812,-4.0828,-4.0903,-4.0933,-4.0886,-4.0892,-4.11,-4.1103,-4.1106,-4.1112,0,0,0,0,0,0,-4.0435,-4.0459,-4.0488,-4.0553,-4.0577,-4.0686,-4.0668,-4.0677,-4.0713,-4.0713,-4.0778,-4.0787,-4.0812,-4.0893,-4.0909,-4.0941,-4.0897,-4.1098,-4.1102,-4.1105,-4.111,-4.1115,-4.112,0,0,0,0,0,-4.0428,-4.0485,-4.0489,-4.0508,-4.0614,-4.0688,-4.0702,-4.073,-4.0716,-4.0745,-4.0781,-4.0785,-4.0928,-4.09,-4.0919,-4.0953,-4.1096,-4.1101,-4.1105,-4.1107,-4.1114,-4.112,0,0,0,0,0,0,-4.0422,-4.0494,-4.0499,-4.0579,-4.0628,-4.069,-4.0728,-4.0737,-4.079,-4.0787,-4.082,-4.0834,-4.0907,-4.0938,-4.0907,-4.1029,-4.101,-4.1019,-4.1006,-4.1013,-4.1018,-4.1008,-4.0902,0,0,0,0,0,-4.043,-4.0485,-4.0544,-4.0609,-4.0633,-4.0677,-4.071,-4.0728,-4.0779,-4.0799,-4.084,-4.0889,-4.0945,-4.0981,-4.1036,-4.1115,-4.1129,-4.1148,-4.1153,-4.1157,-4.1163,-4.1206,-4.1215,-4.1122,-4.1122,-4.1122,0,0,-4.0447,-4.0493,-4.0525,-4.0609,-4.0648,-4.0703,-4.0694,-4.0752,-4.0793,-4.0808,-4.088,-4.0913,-4.097,-4.1047,-4.1083,-4.1075,-4.1192,-4.1163,-4.1166,-4.117,-4.1212,-4.1221,-4.1228,-4.1125,-4.1125,-4.1124,0,0,-4.0506,-4.0547,-4.0605,-4.0645,-4.0705,-4.0733,-4.0747,-4.081,-4.0831,-4.0905,-4.0917,-4.0966,-4.1062,-4.1102,-4.1135,-4.1209,-4.1215,-4.1226,-4.1252,-4.1294,-4.1301,-4.1308,-4.1333,-4.1342,-4.1233,-4.1233,-4.1233,0,-4.0519,-4.0603,-4.0633,-4.0692,-4.0728,-4.0744,-4.0803,-4.084,-4.0914,-4.0939,-4.0929,-4.1049,-4.1089,-4.1175,-4.1193,-4.122,-4.1236,-4.1218,-4.1298,-4.1305,-4.1312,-4.1336,-4.1345,-4.1234,-4.1234,-4.1234,-4.1233,0,-4.0616,-4.0674,-4.0713,-4.0785,-4.0825,-4.0883,-4.0922,-4.096,-4.0975,-4.1004,-4.1079,-4.1127,-4.1191,-4.1214,-4.1229,-4.1302,-4.1295,-4.1291,-4.1273,-4.1321,-4.1344,-4.1353,-4.1235,-4.1235,-4.1234,-4.1234,0,0,-4.0673,-4.0761,-4.0774,-4.0807,-4.0874,-4.092,-4.0979,-4.1042,-4.1072,-4.1124,-4.1173,-4.1254,-4.1252,-4.1289,-4.1309,-4.1346,-4.1399,-4.1338,-4.1339,-4.1346,-4.1481,-4.1482,-4.1492,-4.1405,-4.1407,-4.1408,-4.1476,0,-4.0738,-4.0842,-4.0872,-4.096,-4.1013,-4.103,-4.1082,-4.1128,-4.1158,-4.1207,-4.124,-4.1296,-4.1289,-4.1312,-4.1349,-4.1385,-4.1427,-4.1381,-4.1449,-4.1451,-4.1432,-4.1504,-4.1505,-4.1567,-4.1485,-4.1487,-4.1488,0,-4.0827,-4.088,-4.0973,-4.1034,-4.1057,-4.1102,-4.1162,-4.121,-4.1263,-4.1282,-4.1324,-4.1341,-4.1402,-4.1382,-4.1466,-4.1434,-4.1465,-4.1487,-4.149,-4.1495,-4.1471,-4.151,-4.1587,-4.1595,-4.1503,-4.1502,-4.1501,0,-4.0856,-4.0951,-4.1019,-4.1047,-4.1119,-4.1151,-4.1182,-4.1234,-4.127,-4.1323,-4.1346,-4.1405,-4.1437,-4.1483,-4.1515,-4.1497,-4.1596,-4.1579,-4.1612,-4.1611,-4.163,-4.1628,-4.1711,-4.1654,-4.1653,-4.1653,-4.1653,0,-4.0925,-4.0981,-4.1033,-4.1075,-4.1138,-4.1172,-4.1233,-4.1266,-4.1312,-4.136,-4.1379,-4.1423,-4.1464,-4.1514,-4.154,-4.1605,-4.162,-4.1636,-4.1641,-4.1633,-4.163,-4.1651,-4.1647,-4.1656,-4.1655,-4.1655,-4.1654,0,-4.0967,-4.1005,-4.108,-4.1143,-4.116,-4.1203,-4.1257,-4.1298,-4.1329,-4.1389,-4.1405,-4.1453,-4.1513,-4.155,-4.1626,-4.1643,-4.1714,-4.1719,-4.1696,-4.1698,-4.1728,-4.1724,-4.1826,-4.184,-4.1775,-4.1775,-4.1776,0,-4.1007,-4.1051,-4.1118,-4.1151,-4.1183,-4.1237,-4.1274,-4.1309,-4.1346,-4.1411,-4.1443,-4.1505,-4.1555,-4.1649,-4.1691,-4.1749,-4.1754,-4.1786,-4.1763,-4.1753,-4.1752,-4.1748,-4.1752,-4.1789,-4.179,-4.179,-4.179,0,-4.1073,-4.109,-4.1142,-4.1201,-4.1244,-4.1292,-4.134,-4.1366,-4.1409,-4.145,-4.1511,-4.1551,-4.1628,-4.1688,-4.175,-4.1782,-4.1793,-4.1798,-4.1808,-4.1799,-4.1782,-4.1789,-4.1704,-4.1795,-4.1794,-4.1794,-4.1794,-4.1794,-4.1115,-4.1154,-4.1207,-4.1264,-4.1304,-4.1348,-4.1389,-4.1425,-4.1477,-4.1542,-4.156,-4.1624,-4.1676,-4.176,-4.1794,-4.1844,-4.184,-4.1855,-4.1859,-4.1862,-4.1861,-4.1776,-4.1856,-4.1856,-4.1856,-4.1856,-4.1856,0,-4.118,-4.1215,-4.1268,-4.1334,-4.1379,-4.1386,-4.144,-4.1476,-4.1532,-4.158,-4.163,-4.17,-4.1758,-4.1804,-4.1864,-4.1895,-4.1902,-4.191,-4.1906,-4.1913,-4.1863,-4.1847,-4.1903,-4.1903,-4.1903,-4.1903,-4.1903,-4.1903,-4.1219,-4.1285,-4.1308,-4.1393,-4.1429,-4.1491,-4.152,-4.1561,-4.1599,-4.1677,-4.1725,-4.1755,-4.1803,-4.1866,-4.192,-4.1932,-4.1952,-4.1958,-4.1971,-4.1922,-4.1917,-4.1912,-4.1897,-4.1963,-4.1963,-4.2017,-4.2018,-4.2018]},{"header":{"parameterUnit":"m.s-1","parameterCategory":1,"la1":30.2991,"la2":30.254,"lo1":-89.0895,"lo2":-89.0444,"dy":0.0017,"dx":0.0017,"nx":28,"ny":28,"refTime":"2025-04-01T09:00:00:Z","depth":0,"parameterNumber":3,"parameterNumberName":"V-component_of_WINDS"},"data":[0,0,0,0,0,0,0,0,0,0,0,0,0,0,0,0,0,0,0,0,0,0,0,0,0,0,0,0,0,0,0,0,0,0,0,0,0,0,0,0,0,0,0,0,0,0,0,0,0,0,0,0,0,0,0,0,0,0,4.1325,4.1326,0,4.1432,4.1433,4.1434,4.1458,4.1457,4.1457,4.1456,4.1562,4.1565,4.1568,0,0,0,0,0,0,0,0,0,0,0,0,0,4.1139,4.1143,4.1325,4.1326,4.1327,4.1431,4.1433,4.1434,4.1458,4.1457,4.1457,4.1456,4.156,4.1565,4.1569,0,0,0,0,0,0,0,0,0,0,0,0,0,4.123,4.1144,4.1324,4.1352,4.1355,4.1431,4.1433,4.1435,4.1459,4.1457,4.1456,4.1455,4.1559,4.1564,4.1569,4.1624,0,0,4.1585,4.1588,0,0,0,0,0,0,0,0,4.1225,4.1237,4.1346,4.135,4.1354,4.1431,4.1406,4.1498,4.1459,4.1419,4.1456,4.1455,4.1519,4.1527,4.155,4.1629,4.1633,4.1586,4.1589,4.1591,4.1593,0,0,0,0,0,0,0,4.1219,4.1232,4.1367,4.1348,4.1353,4.1358,4.137,4.1424,4.1474,4.1423,4.1425,4.1437,4.152,4.1544,4.1552,4.1635,4.1586,4.159,4.1594,4.1596,4.1767,4.1768,0,0,0,0,0,0,4.1208,4.1227,4.1363,4.137,4.1286,4.1363,4.1376,4.1407,4.1473,4.1482,4.1438,4.1438,4.1536,4.1546,4.1556,4.1626,4.1591,4.1596,4.1599,4.1766,4.1767,4.1769,0,0,0,0,0,0,4.1204,4.122,4.1359,4.1299,4.1317,4.1367,4.1402,4.141,4.1434,4.1485,4.1494,4.1453,4.1535,4.1549,4.1608,4.163,4.1599,4.1603,4.1764,4.1766,4.1768,4.1765,0,0,0,0,0,0,4.1198,4.1218,4.124,4.13,4.132,4.141,4.1403,4.1413,4.1443,4.1444,4.1502,4.151,4.1536,4.16,4.1613,4.1637,4.1607,4.1762,4.1765,4.1767,4.1763,4.1767,4.177,0,0,0,0,0,4.1192,4.1233,4.1241,4.1257,4.1349,4.1411,4.1423,4.1452,4.1445,4.1467,4.15,4.1508,4.1625,4.1606,4.1621,4.1646,4.1761,4.1764,4.1767,4.1762,4.1766,4.177,0,0,0,0,0,0,4.1173,4.1241,4.125,4.1313,4.1356,4.1415,4.1443,4.1455,4.15,4.1499,4.1533,4.1546,4.1603,4.163,4.1607,4.1704,4.1693,4.1699,4.1684,4.1688,4.1691,4.1683,4.1612,0,0,0,0,0,4.1176,4.1222,4.1279,4.1328,4.135,4.1393,4.1421,4.1441,4.1486,4.1504,4.1541,4.1584,4.1631,4.1661,4.1707,4.1768,4.1781,4.1793,4.1796,4.1798,4.1803,4.1839,4.1846,4.1779,4.1779,4.1779,0,0,4.1183,4.1226,4.1253,4.1326,4.1362,4.1408,4.1408,4.1456,4.1491,4.1511,4.157,4.1599,4.1649,4.171,4.1739,4.1735,4.1825,4.1802,4.1804,4.1808,4.1843,4.1849,4.1855,4.1781,4.1781,4.1781,0,0,4.1219,4.1256,4.1303,4.1339,4.1394,4.1423,4.1434,4.1492,4.1513,4.1573,4.159,4.1631,4.171,4.1746,4.1774,4.1827,4.1837,4.1841,4.1858,4.1892,4.1898,4.1902,4.1923,4.1929,4.1846,4.1846,4.1846,0,4.122,4.1292,4.1324,4.1373,4.1406,4.1428,4.1475,4.1509,4.1575,4.1596,4.1591,4.1693,4.1728,4.1799,4.1812,4.1834,4.1848,4.1835,4.1894,4.19,4.1905,4.1924,4.1931,4.1846,4.1846,4.1846,4.1846,0,4.1291,4.1341,4.1371,4.1438,4.1473,4.1521,4.156,4.1592,4.1609,4.1638,4.17,4.1744,4.18,4.1818,4.1833,4.1891,4.1887,4.1888,4.1878,4.1911,4.193,4.1937,4.1847,4.1846,4.1846,4.1846,0,0,4.1318,4.1403,4.1414,4.1445,4.1509,4.1547,4.1596,4.1653,4.168,4.1725,4.1768,4.1836,4.1838,4.187,4.189,4.1921,4.1962,4.1918,4.192,4.1925,4.203,4.2029,4.2037,4.1969,4.197,4.1972,4.2026,0,4.1363,4.1452,4.1484,4.1558,4.1605,4.1628,4.1671,4.1714,4.1743,4.1786,4.1818,4.1866,4.1864,4.1885,4.1916,4.195,4.1983,4.1947,4.2008,4.201,4.1996,4.2047,4.2047,4.2096,4.2033,4.2035,4.2035,0,4.1427,4.1476,4.1555,4.1615,4.1635,4.1673,4.1729,4.177,4.182,4.1839,4.1877,4.1896,4.1948,4.1935,4.2008,4.1983,4.201,4.2031,4.2033,4.2041,4.2025,4.2056,4.2112,4.212,4.2047,4.2046,4.2045,0,4.144,4.1525,4.1584,4.161,4.1681,4.1707,4.1738,4.1787,4.182,4.1868,4.1889,4.1942,4.1971,4.2012,4.2044,4.2032,4.2115,4.2104,4.2132,4.2132,4.2149,4.2147,4.221,4.2165,4.2165,4.2165,4.2165,0,4.1487,4.1535,4.1591,4.1627,4.1682,4.1718,4.1771,4.1803,4.1847,4.1889,4.1912,4.1951,4.1992,4.2037,4.2062,4.212,4.2132,4.2149,4.2156,4.2148,4.2146,4.2166,4.2164,4.2167,4.2166,4.2166,4.2166,0,4.1511,4.155,4.1616,4.1679,4.1696,4.1733,4.1787,4.1823,4.1854,4.1908,4.1922,4.197,4.2025,4.2062,4.213,4.2148,4.221,4.2215,4.2194,4.2197,4.2224,4.2221,4.2303,4.2316,4.2261,4.2261,4.2262,0,4.1539,4.1577,4.1644,4.1675,4.1706,4.1756,4.179,4.1827,4.1862,4.1923,4.1952,4.2008,4.2055,4.2141,4.2181,4.2234,4.2242,4.2267,4.225,4.2241,4.2243,4.2241,4.2246,4.2269,4.2269,4.227,4.227,0,4.1585,4.1603,4.1652,4.1709,4.175,4.1796,4.1842,4.1866,4.1911,4.1949,4.2005,4.2042,4.2114,4.2169,4.2227,4.2258,4.2272,4.2275,4.2285,4.2278,4.2264,4.2273,4.2202,4.2273,4.2273,4.2273,4.2272,4.2272,4.1613,4.1648,4.1702,4.1756,4.1795,4.1838,4.1876,4.1913,4.1961,4.2024,4.2042,4.2102,4.2152,4.2231,4.2263,4.231,4.2308,4.2321,4.2325,4.2328,4.2329,4.2256,4.232,4.232,4.232,4.232,4.232,0,4.1661,4.1698,4.1747,4.1812,4.1855,4.1866,4.1918,4.1953,4.2006,4.2052,4.2099,4.2165,4.222,4.2265,4.2322,4.2351,4.2359,4.2364,4.2363,4.237,4.2327,4.2313,4.2357,4.2357,4.2357,4.2357,4.2357,4.2357,4.1692,4.1753,4.1778,4.1859,4.1894,4.1954,4.1983,4.2023,4.2061,4.2134,4.218,4.221,4.2257,4.2318,4.2368,4.2381,4.2401,4.2405,4.2419,4.2377,4.2373,4.2369,4.2357,4.2409,4.2409,4.2459,4.2459,4.2459]}]]